| time (UTC) | temp C | wind direction | speed KPH | gust KPH | rain 1hr cm | rain 24hr cm | rain mn cm | humidity % | barometer mb |
| 20260507153036 | 10 | 49 | 3.2 | 11.3 | 0.00 | 2.24 | 0.10 | 44 | 1009.1 |
| 20260507151513 | 10 | 294 | 6.4 | 14.5 | 0.00 | 2.34 | 0.10 | 48 | 1009.1 |
| 20260507150011 | 9 | 233 | 1.6 | 16.1 | 0.00 | 2.34 | 0.10 | 60 | 1009.3 |
| 20260507144507 | 8 | 262 | 3.2 | 14.5 | 0.00 | 2.34 | 0.10 | 62 | 1009.2 |
| 20260507143004 | 7 | 275 | 3.2 | 12.9 | 0.00 | 2.34 | 0.10 | 68 | 1009.3 |
| 20260507141501 | 7 | 336 | 1.6 | 4.8 | 0.00 | 2.34 | 0.10 | 74 | 1009.5 |
| 20260507140059 | 6 | 310 | 1.6 | 6.4 | 0.00 | 2.34 | 0.10 | 74 | 1009.4 |
| 20260507134601 | 6 | 272 | 0.0 | 16.1 | 0.00 | 2.34 | 0.10 | 76 | 1009.3 |
| 20260507133105 | 6 | 293 | 3.2 | 8.0 | 0.00 | 2.34 | 0.10 | 77 | 1009.2 |
| 20260507131612 | 6 | 288 | 1.6 | 3.2 | 0.00 | 2.34 | 0.10 | 77 | 1009.4 |
| 20260507130055 | 6 | 86 | 0.0 | 3.2 | 0.00 | 2.34 | 0.10 | 77 | 1009.5 |
| 20260507124552 | 6 | 222 | 0.0 | 3.2 | 0.00 | 2.34 | 0.10 | 78 | 1009.5 |
| 20260507123052 | 5 | 119 | 1.6 | 4.8 | 0.00 | 2.34 | 0.10 | 78 | 1009.4 |
| 20260507121527 | 5 | 237 | 0.0 | 9.7 | 0.00 | 2.34 | 0.10 | 78 | 1009.5 |
| 20260507120027 | 5 | 91 | 3.2 | 6.4 | 0.00 | 2.34 | 0.10 | 79 | 1009.2 |
| 20260507114523 | 5 | 122 | 0.0 | 1.6 | 0.00 | 2.34 | 0.10 | 79 | 1009.1 |
| 20260507113024 | 4 | 127 | 0.0 | 4.8 | 0.00 | 2.34 | 0.10 | 79 | 1009.3 |
| 20260507111526 | 3 | 88 | 0.0 | 1.6 | 0.00 | 2.34 | 0.10 | 79 | 1009.1 |
| 20260507110022 | 3 | 84 | 0.0 | 3.2 | 0.00 | 2.34 | 0.10 | 79 | 1009.3 |
| 20260507104551 | 2 | 126 | 0.0 | 3.2 | 0.00 | 2.34 | 0.10 | 79 | 1009.2 |
| 20260507103050 | 2 | 127 | 0.0 | 1.6 | 0.00 | 2.34 | 0.10 | 79 | 1009.2 |
| 20260507101552 | 2 | 104 | 0.0 | 1.6 | 0.00 | 2.34 | 0.10 | 79 | 1008.9 |
| 20260507100048 | 2 | 104 | 0.0 | 0.0 | 0.00 | 2.34 | 0.10 | 79 | 1009.0 |
| 20260507094547 | 2 | 104 | 0.0 | 3.2 | 0.00 | 2.34 | 0.10 | 79 | 1008.9 |
| 20260507093051 | 2 | 117 | 0.0 | 1.6 | 0.00 | 2.34 | 0.10 | 78 | 1009.0 |
| 20260507091543 | 2 | 44 | 0.0 | 1.6 | 0.00 | 2.34 | 0.10 | 78 | 1009.2 |
| 20260507090040 | 2 | 303 | 0.0 | 0.0 | 0.00 | 2.34 | 0.10 | 78 | 1009.1 |
| 20260507084538 | 2 | 277 | 0.0 | 0.0 | 0.00 | 2.34 | 0.10 | 78 | 1009.2 |
| 20260507083036 | 3 | 277 | 0.0 | 0.0 | 0.00 | 2.34 | 0.10 | 78 | 1009.2 |
| 20260507081534 | 3 | 277 | 0.0 | 0.0 | 0.00 | 2.34 | 0.10 | 78 | 1009.0 |
| 20260507080037 | 3 | 277 | 0.0 | 0.0 | 0.00 | 2.34 | 0.10 | 78 | 1009.0 |
| 20260507074528 | 4 | 277 | 0.0 | 0.0 | 0.00 | 2.34 | 0.10 | 78 | 1008.6 |
| 20260507073025 | 5 | 277 | 0.0 | 0.0 | 0.00 | 2.34 | 0.10 | 78 | 1008.5 |
| 20260507071554 | 5 | 277 | 0.0 | 1.6 | 0.00 | 2.34 | 0.10 | 78 | 1008.3 |
| 20260507070055 | 5 | 277 | 0.0 | 1.6 | 0.00 | 2.34 | 0.10 | 78 | 1008.5 |
| 20260507064552 | 5 | 277 | 0.0 | 1.6 | 0.00 | 2.34 | 0.10 | 78 | 1008.4 |
| 20260507063049 | 5 | 300 | 0.0 | 3.2 | 0.00 | 2.34 | 0.10 | 78 | 1008.4 |
| 20260507061555 | 5 | 275 | 0.0 | 1.6 | 0.00 | 2.36 | 0.10 | 78 | 1008.7 |
| 20260507060047 | 5 | 281 | 0.0 | 6.4 | 0.00 | 2.36 | 0.10 | 78 | 1008.8 |
| 20260507054547 | 5 | 294 | 0.0 | 4.8 | 0.00 | 2.36 | 0.10 | 78 | 1008.8 |
| 20260507053110 | 5 | 321 | 1.6 | 6.4 | 0.00 | 2.36 | 0.10 | 78 | 1008.7 |
| 20260507051545 | 5 | 304 | 1.6 | 8.0 | 0.00 | 2.36 | 0.10 | 78 | 1008.7 |
| 20260507050045 | 5 | 275 | 1.6 | 6.4 | 0.00 | 2.36 | 0.10 | 78 | 1008.6 |
| 20260507044542 | 5 | 306 | 1.6 | 6.4 | 0.00 | 2.36 | 0.10 | 78 | 1008.7 |
| 20260507043011 | 5 | 286 | 3.2 | 6.4 | 0.00 | 2.39 | 0.10 | 78 | 1008.5 |
| 20260507041508 | 5 | 304 | 0.0 | 6.4 | 0.00 | 2.39 | 0.10 | 78 | 1008.5 |
| 20260507040004 | 5 | 289 | 0.0 | 3.2 | 0.00 | 2.39 | 0.10 | 78 | 1008.2 |
| 20260507034504 | 5 | 292 | 0.0 | 4.8 | 0.03 | 2.39 | 0.10 | 78 | 1008.6 |
| 20260507033003 | 5 | 298 | 1.6 | 3.2 | 0.03 | 2.39 | 0.10 | 78 | 1008.8 |
| 20260507031600 | 6 | 296 | 0.0 | 3.2 | 0.03 | 2.39 | 0.10 | 78 | 1008.6 |
| 20260507031500 | 6 | 294 | 0.0 | 4.8 | 0.03 | 2.39 | 0.10 | 78 | 1008.7 |
| 20260507030029 | 6 | 289 | 0.0 | 4.8 | 0.05 | 2.39 | 0.10 | 78 | 1009.0 |
| 20260507024530 | 6 | 296 | 1.6 | 4.8 | 0.08 | 2.36 | 0.08 | 78 | 1009.0 |
| 20260507023032 | 6 | 281 | 1.6 | 4.8 | 0.08 | 2.36 | 0.08 | 78 | 1009.1 |
| 20260507021524 | 6 | 278 | 3.2 | 8.0 | 0.10 | 2.36 | 0.08 | 78 | 1008.9 |
| 20260507020023 | 6 | 281 | 1.6 | 8.0 | 0.13 | 2.34 | 0.05 | 78 | 1009.0 |
| 20260507014523 | 6 | 313 | 1.6 | 6.4 | 0.13 | 2.29 | 0.00 | 78 | 1008.9 |
| 20260507013053 | 6 | 314 | 3.2 | 11.3 | 0.18 | 2.29 | 0.00 | 78 | 1009.0 |
| 20260507011550 | 6 | 296 | 1.6 | 8.0 | 0.18 | 2.26 | 2.26 | 78 | 1008.6 |
| 20260507010049 | 6 | 313 | 3.2 | 8.0 | 0.15 | 2.21 | 2.21 | 78 | 1008.4 |
| 20260507004546 | 6 | 277 | 3.2 | 17.7 | 0.10 | 2.16 | 2.16 | 78 | 1008.3 |
| 20260507003041 | 6 | 285 | 1.6 | 8.0 | 0.05 | 2.11 | 2.11 | 78 | 1008.0 |
| 20260507001547 | 6 | 306 | 3.2 | 12.9 | 0.03 | 2.08 | 2.08 | 78 | 1007.7 |
| 20260507000011 | 6 | 279 | 3.2 | 17.7 | 0.00 | 2.06 | 2.06 | 78 | 1007.4 |
| 20260506234505 | 7 | 294 | 1.6 | 6.4 | 0.00 | 2.06 | 2.06 | 78 | 1007.2 |
| 20260506233035 | 7 | 263 | 1.6 | 12.9 | 0.00 | 2.06 | 2.06 | 78 | 1007.0 |
| 20260506231533 | 7 | 278 | 1.6 | 8.0 | 0.00 | 2.06 | 2.06 | 78 | 1006.9 |
| 20260506230029 | 7 | 294 | 1.6 | 6.4 | 0.00 | 2.06 | 2.06 | 78 | 1006.8 |
| 20260506224528 | 7 | 283 | 1.6 | 9.7 | 0.00 | 2.06 | 2.06 | 78 | 1006.7 |
| 20260506223027 | 7 | 265 | 0.0 | 3.2 | 0.05 | 2.06 | 2.06 | 78 | 1006.6 |
| 20260506221525 | 7 | 273 | 1.6 | 8.0 | 0.18 | 2.06 | 2.06 | 78 | 1006.4 |
| 20260506220053 | 7 | 286 | 1.6 | 6.4 | 0.43 | 2.06 | 2.06 | 78 | 1006.3 |
| 20260506214601 | 7 | 306 | 1.6 | 8.0 | 0.53 | 2.06 | 2.06 | 77 | 1006.4 |
| 20260506213118 | 8 | 14 | 1.6 | 19.3 | 0.51 | 2.01 | 2.01 | 77 | 1006.4 |
| 20260506211514 | 8 | 307 | 0.0 | 14.5 | 0.38 | 2.11 | 1.88 | 77 | 1006.0 |
| 20260506210013 | 10 | 290 | 4.8 | 12.9 | 0.10 | 1.80 | 1.57 | 75 | 1005.2 |
| 20260506204509 | 13 | 322 | 3.2 | 8.0 | 0.05 | 1.75 | 1.52 | 76 | 1004.7 |
| 20260506203008 | 14 | 138 | 1.6 | 9.7 | 0.05 | 1.73 | 1.50 | 77 | 1004.8 |
| 20260506201605 | 14 | 149 | 1.6 | 14.5 | 0.05 | 1.73 | 1.50 | 77 | 1004.9 |
| 20260506200108 | 14 | 153 | 4.8 | 20.9 | 0.03 | 1.70 | 1.45 | 77 | 1005.0 |
| 20260506194605 | 14 | 140 | 4.8 | 19.3 | 0.03 | 1.70 | 1.45 | 77 | 1005.0 |
| 20260506193100 | 14 | 167 | 8.0 | 16.1 | 0.10 | 1.70 | 1.45 | 77 | 1005.1 |
| 20260506193058 | 14 | 165 | 8.0 | 16.1 | 0.10 | 1.70 | 1.45 | 77 | 1005.1 |
| 20260506191604 | 13 | 134 | 3.2 | 11.3 | 0.18 | 1.68 | 1.42 | 77 | 1005.3 |
| 20260506190052 | 13 | 84 | 3.2 | 8.0 | 0.28 | 1.68 | 1.42 | 77 | 1005.6 |
| 20260506184550 | 13 | 252 | 3.2 | 11.3 | 0.84 | 1.68 | 1.42 | 77 | 1005.7 |
| 20260506183051 | 13 | 130 | 3.2 | 6.4 | 0.97 | 1.60 | 1.37 | 77 | 1005.8 |
| 20260506181555 | 13 | 121 | 1.6 | 3.2 | 0.91 | 1.50 | 1.27 | 77 | 1006.0 |
| 20260506180103 | 13 | 96 | 1.6 | 6.4 | 0.84 | 1.37 | 1.14 | 77 | 1006.0 |
| 20260506174539 | 13 | 302 | 1.6 | 14.5 | 0.36 | 0.84 | 0.61 | 76 | 1006.5 |
| 20260506173041 | 13 | 163 | 3.2 | 9.7 | 0.18 | 0.64 | 0.41 | 75 | 1006.2 |
| 20260506171535 | 13 | 123 | 3.2 | 8.0 | 0.15 | 0.58 | 0.36 | 75 | 1006.3 |
| 20260506170031 | 13 | 152 | 8.0 | 16.1 | 0.13 | 0.53 | 0.30 | 75 | 1006.4 |
| 20260506164530 | 13 | 149 | 6.4 | 14.5 | 0.08 | 0.48 | 0.25 | 75 | 1006.7 |
| 20260506163029 | 13 | 132 | 9.7 | 16.1 | 0.08 | 0.46 | 0.23 | 75 | 1006.6 |
| 20260506161524 | 13 | 115 | 11.3 | 20.9 | 0.08 | 0.43 | 0.20 | 74 | 1006.9 |
| 20260506160021 | 13 | 128 | 9.7 | 17.7 | 0.08 | 0.41 | 0.18 | 73 | 1007.3 |
| 20260506154519 | 13 | 147 | 4.8 | 16.1 | 0.10 | 0.41 | 0.18 | 74 | 1007.7 |